Printer-friendly version

IAU Minor Planet Center

Minor Planet Center

MPEC 2006-A52 : 2006 AK8

The following Minor Planet Electronic Circular may be linked-to from your own Web pages, but must not otherwise be redistributed electronically.


Read MPEC 2006-A51 Read MPEC 2006-A53


M.P.E.C. 2006-A52                                Issued 2006 Jan. 10, 14:14 UT

     The Minor Planet Electronic Circulars contain information on unusual
         minor planets and routine data on comets.  They are published
   on behalf of Commission 20 of the International Astronomical Union by the
          Minor Planet Center, Smithsonian Astrophysical Observatory,
                          Cambridge, MA 02138, U.S.A.

                  Supported in part by the Brinson Foundation
                  Supported in part by the TABASGO Foundation
             Prepared using the Tamkin Foundation Computer Network

                              MPC@CFA.HARVARD.EDU
          URL http://cfa-www.harvard.edu/iau/mpc.html  ISSN 1523-6714

                                   2006 AK8

Observations:
     K06A08K* C2006 01 08.49755 11 16 18.08 +01 46 38.1          19.7 V EA052G96
     K06A08K  C2006 01 08.50463 11 16 20.28 +01 47 22.3          19.7 V EA052G96
     K06A08K  C2006 01 08.51170 11 16 22.47 +01 48 06.5          19.9 V EA052G96
     K06A08K  C2006 01 08.51878 11 16 24.67 +01 48 50.5          20.0 V EA052G96
     K06A08K  C2006 01 08.55044 11 16 34.53 +01 52 08.1          20.1 V EA052G96
     K06A08K  C2006 01 08.55098 11 16 34.75 +01 52 11.4          20.1 V EA052G96
     K06A08K  C2006 01 08.55152 11 16 34.89 +01 52 14.9          19.8 V EA052G96
     K06A08K  C2006 01 08.55205 11 16 35.07 +01 52 18.3          20.0 V EA052G96
     K06A08K  C2006 01 10.44336 11 27 17.35 +05 19 38.6          19.3 V EA052G96
     K06A08K  C2006 01 10.44498 11 27 17.92 +05 19 50.1          19.7 V EA052G96
     K06A08K  C2006 01 10.44660 11 27 18.46 +05 20 01.1          19.8 V EA052G96
     K06A08K  C2006 01 10.44821 11 27 19.00 +05 20 12.3          19.7 V EA052G96
     K06A08K 5C2006 01 10.51921 11 27 43.27 +05 28 22.8          19.6 R EA052673
     K06A08K 5C2006 01 10.52500 11 27 45.23 +05 29 02.8                 EA052673
     K06A08K 5C2006 01 10.52894 11 27 46.54 +05 29 30.0                 EA052673
     K06A08K 5C2006 01 10.53427 11 27 48.34 +05 30 07.8                 EA052673

Observer details:
673 Table Mountain Observatory, Wrightwood.  Observer J. Young.  0.6-m f/16
    Cassegrain + CCD.
G96 Mt. Lemmon Survey.  Observers E. J. Christensen, R. Hill.  Measurers
    E. C. Beshore, E. J. Christensen, G. J. Garradd, A. D. Grauer, R. E. Hill,
    R. A. Kowalski, S. M. Larson, R. H. McNaught.  1.5-m reflector + CCD.

Orbital elements:
2006 AK8                                                 Earth MOID = 0.1122 AU
Epoch 2006 Mar. 6.0 TT = JDT 2453800.5                  MPC
M 342.78470              (2000.0)            P               Q
n   0.79318838     Peri.   74.76379     -0.86295091     +0.26317267
a   1.1558066      Node   118.73145     -0.34785512     -0.92857884
e   0.1273676      Incl.   29.46580     +0.36648676     -0.26168968
P   1.24           H   21.1           G   0.15           U   8
Residuals in seconds of arc
060108 G96  0.1+  0.3-    060108 G96  0.1-  0.1+    060110 673  0.2+  0.1+
060108 G96  0.1+  0.1-    060108 G96  0.1+  0.2+    060110 673  0.3+  0.1-
060108 G96  0.0   0.0     060110 G96  0.2-  0.2-    060110 673  0.1-  0.2-
060108 G96  0.1-  0.1-    060110 G96  0.2+  0.1+    060110 673  0.2-  0.6+
060108 G96  0.4-  0.1+    060110 G96  0.1+  0.1-
060108 G96  0.3+  0.0     060110 G96  0.1+  0.0

Ephemeris:
2006 AK8                 a,e,i = 1.15, 0.13, 29                  q = 1.0071
Date    TT    R. A. (2000) Decl.     Delta      r     Elong.  Phase     V
2006 01 05    10 58.59   -03 40.9    0.235    1.109   116.7    52.4    20.1
2006 01 15    11 56.75   +15 01.5    0.185    1.089   120.5    51.1    19.5
2006 01 25    13 24.36   +38 50.7    0.180    1.071   114.1    57.1    19.6
2006 02 04    15 17.31   +54 11.9    0.219    1.054   102.1    66.2    20.2
2006 02 14    16 58.62   +59 09.0    0.278    1.038    92.7    71.8    20.9
2006 02 24    18 07.31   +59 41.9    0.342    1.026    86.3    74.3    21.4
2006 03 06    18 51.32   +59 02.5    0.401    1.016    81.9    75.1    21.8
2006 03 16    19 21.17   +58 05.3    0.451    1.010    78.9    75.1    22.0

Timothy B. Spahr             (C) Copyright 2006 MPC           M.P.E.C. 2006-A52

Read MPEC 2006-A51 Read MPEC 2006-A53


Our Web policy. Index to the CBAT/MPC/ICQ pages.


Valid HTML 4.01!